STORK-4 (48873 NORAD) Tracking and Keplerian Element Data

This shows tracking and keplerian element data for the satellite.

Feedback or suggestion? Click here.




ElementValue
Catalog48873
NameSTORK-4
Epoch Orbit1331
Epoch Day269.11691251
Epoch Year2021
RAAN256.998
Inclination60.7072
Eccentricity0.0026337
Argument of Perigee8.5671
Mean Anonmoly57.9764
Mean Motion15.19844627
Decay Rate3.953E-05
L11 48873U 21058C 21269.11691251 .00003953 00000-0 19367-3 0 9991
L22 48873 60.7072 256.9980 0026337 8.5671 57.9764 15.19844627 13314

Live tracking and technical data element details for STORK-4 (NORAD 48873). STORK-4 can be tracked NOW for your location showing map with azimuth and elevation plus other details from your city location.

Track the satellite on the map from your city or location and see movement details for azimuth, elevation, latitude, longitude, range, height, and movement on the map or in text.







IsCatalogInMostPopularTable: catalog: 48873, numindb: 19
Update: records affected: 1



GetName: 48873 STORK-4

Hit Count: updated at: Sun, 26 Sep 2021 16:41:28 GMT